FW8563 Weather Reports


Display with metric or nautical units.
time (UTC)temp
F
wind
direction
speed
MPH
gust
MPH
rain 1hr
in
rain 24hr
in
rain mn
in
humidity
%
barometer
mb
20260904135409 90 210 2.0 8.0 0.00 0.00 0.00 32 1022.7
20260904134907 91 243 1.0 6.0 0.00 0.00 0.00 30 1022.6
20260904134409 91 217 1.0 5.0 0.00 0.00 0.00 29 1022.8
20260904133907 90 203 1.0 4.0 0.00 0.00 0.00 30 1022.8
20260904132905 90 205 2.0 7.0 0.00 0.00 0.00 31 1022.9
20260904132402 90 236 1.0 5.0 0.00 0.00 0.00 28 1022.8
20260904131903 90 173 1.0 5.0 0.00 0.00 0.00 29 1022.8
20260904131401 90 121 1.0 6.0 0.00 0.00 0.00 31 1023.0
20260904130903 90 103 1.0 6.0 0.00 0.00 0.00 30 1023.0
20260904130403 91 168 1.0 3.0 0.00 0.00 0.00 29 1023.1
20260904125901 90 147 1.0 5.0 0.00 0.00 0.00 30 1023.2
20260904125401 89 296 2.0 6.0 0.00 0.00 0.00 31 1023.2
20260904124900 90 217 2.0 6.0 0.00 0.00 0.00 30 1023.2
20260904124358 90 217 2.0 5.0 0.00 0.00 0.00 30 1023.3
20260904123856 90 198 1.0 6.0 0.00 0.00 0.00 33 1023.4
20260904123356 89 113 2.0 8.0 0.00 0.00 0.00 34 1023.4
20260904122357 88 208 3.0 7.0 0.00 0.00 0.00 36 1023.4
20260904121852 88 115 3.0 7.0 0.00 0.00 0.00 33 1023.5
20260904121351 88 129 2.0 6.0 0.00 0.00 0.00 35 1023.5
20260904120354 88 218 3.0 8.0 0.00 0.00 0.00 33 1023.4
20260904115855 88 218 2.0 8.0 0.00 0.00 0.00 35 1023.5
20260904115350 88 193 3.0 9.0 0.00 0.00 0.00 34 1023.5
20260904114848 88 134 3.0 9.0 0.00 0.00 0.00 34 1023.4
20260904114350 87 146 3.0 9.0 0.00 0.00 0.00 32 1023.4
20260904113851 87 148 3.0 9.0 0.00 0.00 0.00 33 1023.4
20260904113348 87 212 3.0 7.0 0.00 0.00 0.00 34 1023.5
20260904112848 87 217 3.0 8.0 0.00 0.00 0.00 33 1023.5
20260904112348 87 194 3.0 8.0 0.00 0.00 0.00 34 1023.5
20260904111848 87 217 3.0 8.0 0.00 0.00 0.00 34 1023.6
20260904110857 87 140 3.0 8.0 0.00 0.00 0.00 35 1023.5
20260904110357 87 155 3.0 6.0 0.00 0.00 0.00 37 1023.7
20260904105847 87 167 2.0 6.0 0.00 0.00 0.00 36 1023.6
20260904104836 87 91 1.0 5.0 0.00 0.00 0.00 36 1023.6
20260904104332 86 214 1.0 5.0 0.00 0.00 0.00 37 1023.7
20260904103830 86 124 2.0 6.0 0.00 0.00 0.00 37 1023.7
20260904103329 86 201 2.0 7.0 0.00 0.00 0.00 39 1023.7
20260904102831 86 243 1.0 7.0 0.00 0.00 0.00 39 1023.7
20260904102331 86 129 1.0 6.0 0.00 0.00 0.00 41 1023.7
20260904101830 86 137 1.0 6.0 0.00 0.00 0.00 39 1023.7
20260904101330 86 141 1.0 5.0 0.00 0.00 0.00 41 1023.8
20260904100832 85 146 1.0 4.0 0.00 0.00 0.00 38 1023.7
20260904100330 85 136 1.0 3.0 0.00 0.00 0.00 38 1023.9
20260904095830 85 190 0.0 3.0 0.00 0.00 0.00 40 1023.8
20260904095329 84 70 1.0 5.0 0.00 0.00 0.00 38 1023.8
20260904094826 84 69 1.0 5.0 0.00 0.00 0.00 38 1023.8
20260904093821 83 349 1.0 4.0 0.00 0.00 0.00 36 1023.8
20260904093316 83 35 2.0 4.0 0.00 0.00 0.00 36 1023.8
20260904092811 83 72 1.0 5.0 0.00 0.00 0.00 38 1023.8
20260904092312 83 30 2.0 5.0 0.00 0.00 0.00 40 1023.8
20260904091813 82 124 2.0 6.0 0.00 0.00 0.00 39 1023.8
20260904091312 83 75 2.0 6.0 0.00 0.00 0.00 39 1024.0
20260904090810 83 56 2.0 8.0 0.00 0.00 0.00 41 1023.8
20260904090311 82 339 2.0 8.0 0.00 0.00 0.00 42 1023.8
20260904085808 82 6 2.0 6.0 0.00 0.00 0.00 42 1023.7
20260904084807 82 15 0.0 2.0 0.00 0.00 0.00 45 1023.7
20260904084308 81 49 1.0 4.0 0.00 0.00 0.00 46 1023.7
20260904083808 81 89 1.0 4.0 0.00 0.00 0.00 47 1023.6
20260904083308 80 70 2.0 9.0 0.00 0.00 0.00 46 1023.5
20260904082806 80 12 3.0 9.0 0.00 0.00 0.00 45 1023.5
20260904081801 79 24 4.0 9.0 0.00 0.00 0.00 48 1023.5
20260904080300 79 64 3.0 11.0 0.00 0.00 0.00 49 1023.4
20260904075802 79 9 3.0 8.0 0.00 0.00 0.00 51 1023.3
20260904075259 78 8 3.0 10.0 0.00 0.00 0.00 52 1023.3
20260904074759 78 72 4.0 11.0 0.00 0.00 0.00 52 1023.2
20260904074300 78 69 5.0 13.0 0.00 0.00 0.00 52 1023.1
20260904073758 78 30 7.0 15.0 0.00 0.00 0.00 56 1023.0
20260904073300 77 53 9.0 17.0 0.00 0.00 0.00 55 1022.9
20260904071758 77 32 9.0 17.0 0.00 0.00 0.00 56 1022.7
20260904071254 77 13 9.0 17.0 0.00 0.00 0.00 56 1022.8
20260904070254 76 0 7.0 15.0 0.00 0.00 0.00 58 1022.7
20260904065753 76 22 7.0 14.0 0.00 0.00 0.00 58 1022.8
20260904065256 76 32 7.0 12.0 0.00 0.00 0.00 59 1022.7
20260904064756 76 13 6.0 12.0 0.00 0.00 0.00 60 1022.7
20260904063256 75 31 6.0 12.0 0.00 0.00 0.00 62 1022.6
20260904062754 75 25 7.0 13.0 0.00 0.00 0.00 63 1022.6
20260904062250 74 325 7.0 13.0 0.00 0.00 0.00 63 1022.7
20260904061752 74 44 6.0 12.0 0.00 0.00 0.00 63 1022.6
20260904061252 74 358 5.0 12.0 0.00 0.00 0.00 63 1022.6
20260904060750 74 15 6.0 11.0 0.00 0.00 0.00 62 1022.6
20260904060251 74 21 6.0 11.0 0.00 0.00 0.00 62 1022.6
20260904055750 74 15 6.0 11.0 0.00 0.00 0.00 62 1022.6
20260904055252 74 33 6.0 11.0 0.00 0.00 0.00 61 1022.5
20260904054750 74 32 5.0 10.0 0.00 0.00 0.00 61 1022.6
20260904053750 73 18 6.0 12.0 0.00 0.00 0.00 60 1022.5
20260904053250 73 8 6.0 12.0 0.00 0.00 0.00 61 1022.5
20260904052750 72 19 5.0 9.0 0.00 0.00 0.00 63 1022.5
20260904051748 71 338 4.0 8.0 0.00 0.00 0.00 64 1022.3
20260904051248 71 13 4.0 7.0 0.00 0.00 0.00 65 1022.3
20260904050749 71 354 4.0 7.0 0.00 0.00 0.00 65 1022.3
20260904050247 71 347 4.0 7.0 0.00 0.00 0.00 65 1022.2
20260904045747 71 347 4.0 8.0 0.00 0.00 0.00 65 1022.2
20260904045247 71 328 4.0 8.0 0.00 0.00 0.00 66 1022.3
20260904044748 71 24 4.0 8.0 0.00 0.00 0.00 66 1022.1
20260904044248 71 336 5.0 8.0 0.00 0.00 0.00 67 1022.1
20260904043747 71 4 5.0 8.0 0.00 0.00 0.00 67 1022.0
20260904043250 71 15 4.0 7.0 0.00 0.00 0.00 67 1022.1
20260904042748 71 8 4.0 7.0 0.00 0.00 0.00 67 1022.1
20260904042248 71 331 5.0 8.0 0.00 0.00 0.00 67 1022.1
20260904041747 71 20 4.0 8.0 0.00 0.00 0.00 67 1022.1
20260904040905 71 338 4.0 8.0 0.00 0.00 0.00 67 1022.1
20260904040648 71 10 4.0 8.0 0.00 0.00 0.00 67 1022.0
20260904040419 71 1 3.0 6.0 0.00 0.00 0.00 67 1022.0
20260904040201 72 338 3.0 7.0 0.00 0.00 0.00 66 1022.0
20260904035935 72 342 2.0 7.0 0.00 0.00 0.00 66 1022.0
20260904035714 72 339 2.0 5.0 0.00 0.00 0.00 66 1022.0
20260904035504 72 330 2.0 6.0 0.00 0.00 0.00 66 1022.0
20260904035253 72 5 3.0 6.0 0.00 0.00 0.00 66 1022.1
20260904035039 72 13 3.0 6.0 0.00 0.00 0.00 66 1022.1
20260904034827 72 358 2.0 5.0 0.00 0.00 0.00 66 1022.1
20260904034614 72 338 2.0 5.0 0.00 0.00 0.00 66 1022.1
20260904034357 72 4 2.0 5.0 0.00 0.00 0.00 66 1022.1
20260904034202 72 343 2.0 5.0 0.00 0.00 0.00 66 1022.0
20260904034023 72 337 2.0 5.0 0.00 0.00 0.00 66 1022.1
20260904033841 71 324 2.0 5.0 0.00 0.00 0.00 66 1022.1
20260904033655 71 335 1.0 4.0 0.00 0.00 0.00 67 1022.1
20260904033515 71 335 1.0 4.0 0.00 0.00 0.00 66 1022.1
20260904033332 71 352 2.0 6.0 0.00 0.00 0.00 66 1022.1
20260904031423 71 350 1.0 4.0 0.00 0.00 0.00 67 1022.3
20260904000457 74 21 4.0 7.0 0.00 0.00 0.00 58 1022.3
20260903235954 74 20 4.0 7.0 0.00 0.00 0.00 59 1022.3
20260903235457 74 7 3.0 6.0 0.00 0.00 0.00 59 1022.3
20260903234955 74 338 2.0 6.0 0.00 0.00 0.00 59 1022.3
20260903233955 74 9 2.0 6.0 0.00 0.00 0.00 59 1022.5
20260903233456 74 17 3.0 7.0 0.00 0.00 0.00 59 1022.3
20260903232955 74 28 4.0 7.0 0.00 0.00 0.00 59 1022.3
20260903232455 74 13 4.0 7.0 0.00 0.00 0.00 59 1022.3
20260903231955 74 7 3.0 7.0 0.00 0.00 0.00 59 1022.5
20260903231448 74 11 2.0 6.0 0.00 0.00 0.00 59 1022.5
20260903230444 74 345 4.0 7.0 0.00 0.00 0.00 58 1022.6
20260903225940 74 7 4.0 7.0 0.00 0.00 0.00 58 1022.6
20260903225443 74 20 4.0 8.0 0.00 0.00 0.00 58 1022.5
20260903224941 74 355 3.0 8.0 0.00 0.00 0.00 59 1022.5
20260903224441 74 26 2.0 4.0 0.00 0.00 0.00 59 1022.5
20260903223942 74 321 2.0 5.0 0.00 0.00 0.00 59 1022.3
20260903223441 74 335 3.0 5.0 0.00 0.00 0.00 59 1022.3
20260903222943 73 349 2.0 6.0 0.00 0.00 0.00 60 1022.3
20260903222441 74 304 3.0 7.0 0.00 0.00 0.00 58 1022.2
20260903221943 75 39 4.0 9.0 0.00 0.00 0.00 57 1022.2
20260903221442 75 19 5.0 9.0 0.00 0.00 0.00 57 1022.2
20260903220944 75 0 4.0 8.0 0.00 0.00 0.00 56 1022.2
20260903220441 75 13 4.0 8.0 0.00 0.00 0.00 56 1022.1
20260903215940 75 1 4.0 8.0 0.00 0.00 0.00 56 1022.2
20260903215443 75 15 5.0 8.0 0.00 0.00 0.00 56 1022.1
20260903214939 76 11 5.0 9.0 0.00 0.00 0.00 56 1022.0
20260903214437 76 12 5.0 9.0 0.00 0.00 0.00 55 1022.0
20260903213437 76 17 5.0 8.0 0.00 0.00 0.00 55 1022.0
20260903212936 76 8 5.0 8.0 0.00 0.00 0.00 55 1021.9
20260903211935 76 18 4.0 7.0 0.00 0.00 0.00 55 1022.0
20260903211434 76 8 4.0 8.0 0.00 0.00 0.00 55 1022.1
20260903210936 76 3 4.0 8.0 0.00 0.00 0.00 55 1022.0
20260903210437 76 18 4.0 8.0 0.00 0.00 0.00 56 1022.1
20260903205935 76 0 5.0 8.0 0.00 0.00 0.00 55 1022.0
20260903205434 76 3 4.0 7.0 0.00 0.00 0.00 55 1022.0
20260903204932 76 8 4.0 7.0 0.00 0.00 0.00 55 1022.0
20260903203431 77 6 2.0 4.0 0.00 0.00 0.00 55 1022.0
20260903202931 77 8 2.0 4.0 0.00 0.00 0.00 55 1022.0
20260903202428 77 349 1.0 4.0 0.00 0.00 0.00 55 1021.9
20260903201931 77 342 1.0 3.0 0.00 0.00 0.00 55 1021.9
20260903201428 77 336 1.0 3.0 0.00 0.00 0.00 55 1021.9
20260903200928 76 322 0.0 3.0 0.00 0.00 0.00 56 1022.0
20260903200428 77 347 0.0 1.0 0.00 0.00 0.00 56 1021.9
20260903195927 77 333 0.0 2.0 0.00 0.00 0.00 56 1022.0
20260903195427 77 355 0.0 2.0 0.00 0.00 0.00 55 1022.0
20260903194423 78 340 1.0 3.0 0.00 0.00 0.00 52 1022.0
20260903193917 78 353 0.0 3.0 0.00 0.00 0.00 50 1022.0
20260903192906 78 328 0.0 3.0 0.00 0.00 0.00 51 1021.9
20260903192403 78 345 0.0 1.0 0.00 0.00 0.00 50 1021.8
20260903191403 78 9 1.0 3.0 0.00 0.00 0.00 48 1021.8
20260903190905 78 12 0.0 2.0 0.00 0.00 0.00 49 1021.8
20260903190402 79 338 1.0 3.0 0.00 0.00 0.00 49 1021.8
20260903185404 79 340 0.0 2.0 0.00 0.00 0.00 46 1021.7
20260903184903 80 4 0.0 3.0 0.00 0.00 0.00 46 1021.7
20260903183905 80 11 2.0 4.0 0.00 0.00 0.00 45 1021.5
20260903183405 80 9 2.0 5.0 0.00 0.00 0.00 45 1021.3
20260903182903 80 9 2.0 5.0 0.00 0.00 0.00 45 1021.2
20260903181905 80 9 2.0 4.0 0.00 0.00 0.00 46 1021.2
20260903181404 80 356 1.0 4.0 0.00 0.00 0.00 46 1021.1
20260903180905 80 12 0.0 2.0 0.00 0.00 0.00 47 1021.0
20260903180402 80 11 0.0 1.0 0.00 0.00 0.00 47 1020.9
20260903175405 81 7 0.0 2.0 0.00 0.00 0.00 46 1020.9
20260903174903 81 359 0.0 2.0 0.00 0.00 0.00 46 1020.9
20260903174402 81 11 1.0 2.0 0.00 0.00 0.00 46 1020.9
20260903173902 82 10 1.0 3.0 0.00 0.00 0.00 46 1020.9
20260903173402 82 8 1.0 3.0 0.00 0.00 0.00 47 1020.9
20260903172904 82 5 1.0 3.0 0.00 0.00 0.00 46 1020.8
20260903172405 83 6 1.0 2.0 0.00 0.00 0.00 46 1021.0
20260903171902 83 357 1.0 4.0 0.00 0.00 0.00 46 1020.9
20260903171401 84 7 1.0 4.0 0.00 0.00 0.00 45 1021.0
20260903170903 84 5 0.0 3.0 0.00 0.00 0.00 45 1020.8
20260903170401 85 359 0.0 3.0 0.00 0.00 0.00 44 1020.9
20260903165900 85 8 0.0 3.0 0.00 0.00 0.00 44 1020.9
20260903165404 85 345 1.0 3.0 0.00 0.00 0.00 44 1020.9
20260903164859 85 30 1.0 3.0 0.00 0.00 0.00 43 1021.0
20260903164357 85 10 1.0 4.0 0.00 0.00 0.00 43 1020.9
20260903163856 85 20 2.0 5.0 0.00 0.00 0.00 43 1020.9
20260903162855 85 359 3.0 10.0 0.00 0.00 0.00 43 1020.9
20260903162351 85 31 3.0 10.0 0.00 0.00 0.00 41 1020.9
20260903161850 85 8 3.0 8.0 0.00 0.00 0.00 42 1020.9
20260903161336 85 52 3.0 7.0 0.00 0.00 0.00 42 1020.9
20260903160831 85 23 4.0 9.0 0.00 0.00 0.00 41 1021.0
20260903160332 85 12 4.0 9.0 0.00 0.00 0.00 42 1021.0
20260903155832 86 6 3.0 9.0 0.00 0.00 0.00 41 1021.0
20260903155332 86 23 3.0 7.0 0.00 0.00 0.00 40 1020.9
20260903154833 86 27 4.0 7.0 0.00 0.00 0.00 40 1021.0
20260903154331 86 335 4.0 8.0 0.00 0.00 0.00 39 1021.0
20260903153329 86 345 3.0 8.0 0.00 0.00 0.00 39 1021.0
20260903152324 86 348 3.0 9.0 0.00 0.00 0.00 39 1020.9
20260903151324 87 11 5.0 11.0 0.00 0.00 0.00 40 1020.9
20260903150824 86 31 5.0 12.0 0.00 0.00 0.00 38 1020.9
20260903150326 86 359 5.0 12.0 0.00 0.00 0.00 39 1020.8
20260903145824 87 11 6.0 11.0 0.00 0.00 0.00 40 1020.8
20260903145324 86 347 5.0 11.0 0.00 0.00 0.00 39 1020.8
20260903144825 87 32 3.0 11.0 0.00 0.00 0.00 38 1020.8
20260903144323 87 316 5.0 11.0 0.00 0.00 0.00 39 1020.7
20260903143320 86 23 6.0 11.0 0.00 0.00 0.00 38 1020.8
20260903142823 86 343 5.0 14.0 0.00 0.00 0.00 38 1020.8
20260903142320 87 16 3.0 14.0 0.00 0.00 0.00 39 1020.8
20260903141822 87 16 2.0 9.0 0.00 0.00 0.00 39 1020.9
20260903141320 86 52 4.0 11.0 0.00 0.00 0.00 40 1020.8
20260903140820 87 30 4.0 11.0 0.00 0.00 0.00 39 1021.0
20260903140324 87 42 3.0 12.0 0.00 0.00 0.00 40 1020.9